Regional Weather Roundup
Issued by NWS

Home | Current Version | Previous Version | Text Only | Print | Product List | Glossary On
Versions: 1 2 3 4 5 6 7 8 9 10 11 12 13 14 15 16 17 18 19 20 21 22 23 24 25 26 27 28 29 30 31 32 33 34 35 36 37 38 39 40 41 42 43 44 45 46 47 48 49 50
000
ASUS43 KFSD 200810
RWRSD

WEATHER ROUNDUP FOR SOUTH DAKOTA
NATIONAL WEATHER SERVICE SIOUX FALLS SD
300 AM CDT WED AUG 20 2014

NOTE: "FAIR" INDICATES FEW OR NO CLOUDS BELOW 12,000 FEET WITH NO
SIGNIFICANT WEATHER AND/OR OBSTRUCTIONS TO VISIBILITY.


SDZ001>005-009-010-012>017-200900-
NORTHWEST AND NORTH CENTRAL SOUTH DAKOTA

CITY           SKY/WX    TMP DP  RH WIND       PRES   REMARKS
BUFFALO          N/A     71  60  68 SE8       29.63F
FAITH            N/A     73  64  73 SE17      29.70F
MOBRIDGE       PTCLDY    67  63  87 SE9       29.70S
$$

SDZ012>016-024>037-041>051-057-063-072>074-200900-
SOUTHWEST AND SOUTH CENTRAL SOUTH DAKOTA

CITY           SKY/WX    TMP DP  RH WIND       PRES   REMARKS
RAPID CTY ARPT CLOUDY    70  56  61 SE10      29.74F
PIERRE         CLOUDY    68  63  84 SE15G26   29.70F
CUSTER         CLOUDY    65  48  54 S5        29.90S
ELLSWORTH AFB  CLOUDY    73  55  54 S12       29.72F
PHILIP         CLOUDY    71  64  78 E14       29.71R
PINE RIDGE     CLOUDY    67  60  78 NW6       29.75F
WINNER         FAIR      74  67  78 SE5       29.75R
$$

SDZ004>011-016>023-039-040-200900-
NORTHEAST SOUTH DAKOTA

CITY           SKY/WX    TMP DP  RH WIND       PRES   REMARKS
ABERDEEN       CLEAR     63  61  93 SE6       29.75S
WATERTOWN      CLEAR     64  60  87 CALM      29.80S
SISSETON         N/A     62  62 100 S5        29.77S
$$

SDZ017-020-022-023-036>040-048>070-200900-
SOUTHEAST SOUTH DAKOTA

CITY           SKY/WX    TMP DP  RH WIND       PRES   REMARKS
SIOUX FALLS    MOCLDY    68  63  84 CALM      29.79F
HURON          CLOUDY    67  62  84 SE6       29.75R
CHAMBERLAIN    CLOUDY    69  66  92 CALM      29.77R
MITCHELL       CLOUDY    68  63  84 SE3       29.76S
YANKTON        CLOUDY    66  64  94 E7        29.77R
$$

ABBREVIATIONS USED IN REMARKS
   TC - TEMPERATURE IN CELSIUS
  WCI - WIND CHILL INDEX
   HX - HEAT INDEX
  VSB - VISIBILITY




USA.gov is the U.S. government's official web portal to all federal, state and local government web resources and services.